Location: Unspecified
(48.9757°N, 0.0000°E)
Time: 11:16:13
(UTC+00:00)

ISS - Visible Passes

Search period start: 10 December 2019 00:00
Search period end: 20 December 2019 00:00
Orbit: 411 x 421 km, 51.6° (Epoch: 10 December)

Date Brightness Start Highest point End Pass type
(mag) Time Alt. Az. Time Alt. Az. Time Alt. Az.
10 Dec -1.8 17:24:35 10° W 17:27:34 29° SW 17:30:32 10° SSE visible
11 Dec -2.4 16:35:58 10° WNW 16:39:11 43° SSW 16:42:24 10° SE visible
12 Dec -0.5 17:25:11 10° WSW 17:26:58 14° SW 17:28:46 10° S visible
13 Dec -0.7 16:36:05 10° W 16:38:40 21° SW 16:41:16 10° SSE visible
